Regional Weather Roundup
Issued by NWS Charleston, SC

Current Version | Previous Version | Text Only | Print | Product List | Glossary Off
Versions: 1 2 3 4 5 6 7 8 9 10 11 12 13 14 15 16 17 18 19 20 21 22 23 24 25 26 27 28 29 30 31 32 33 34 35 36 37 38 39 40 41 42 43 44 45 46 47 48 49 50

000
ASUS42 KCHS 302110
RWRCHS
REGIONAL WEATHER ROUNDUP
NATIONAL WEATHER SERVICE CHARLESTON SC
500 PM EDT TUE SEP 30 2014

NOTE: "FAIR" INDICATES FEW OR NO CLOUDS BELOW 12,000 FEET WITH NO
SIGNIFICANT WEATHER AND/OR OBSTRUCTIONS TO VISIBILITY.

NOT ALL STATIONS ARE QUALITY CONTROLLED BY THE NATIONAL
WEATHER SERVICE. USE DATA WITH CAUTION...ESPECIALLY
DEWPOINT OBSERVATIONS.

SCZ027-030-031-034>040-042>050-302200-
...SOUTH CAROLINA...

CITY           SKY/WX    TMP DP  RH WIND       PRES   REMARKS
N CHARLESTON   MOSUNNY   82  62  50 NE3       29.84S
WATERFRONT PRK   N/A     79 N/A N/A SE8         N/A
FORT JOHNSON   NOT AVBL
MOUNT PLEASANT FAIR      81  66  61 CALM      29.83F
JOHNS ISLAND   CLEAR     81  75  83 CALM      29.84S
PINOPOLIS        N/A     82  66  57 CALM      29.78F
MONCKS CORNER  FAIR      81  68  65 N3        29.84F
SUMMERVILLE    FAIR      81  64  57 NE3       29.85S
BEAUFORT MCAS  MOSUNNY   82  63  52 VRB3      29.84F
BEAUFORT ARPT  FAIR      81  64  57 NE6       29.84S
HILTON HEAD IS MOSUNNY   81  66  61 N6        29.85F
GEORGETOWN     NOT AVBL
WALTERBORO     CLEAR     82  55  39 N5        29.85S
ORANGEBURG     SUNNY     83  60  45 E7        29.85S
BARNWELL       FAIR      82  63  51 CALM      29.86S
AIKEN          FAIR      79  66  65 NW5       29.90S
MANNING        FAIR      82  66  57 N6        29.84S
KINGSTREE      NOT AVBL
COLUMBIA       MOSUNNY   83  59  44 VRB3      29.84F
SUMTER         SUNNY     82  60  47 N6        29.84S
FLORENCE       MOSUNNY   82  62  50 N5        29.85S
MYRTLE BEACH   MOSUNNY   82  63  51 N8        29.83S
N MYRTLE BEACH MOSUNNY   80  63  55 N6        29.82F

$$

GAZ063-065-086>088-099>101-113>116-118-119-134-136>141-150-302200-
...GEORGIA...

CITY           SKY/WX    TMP DP  RH WIND       PRES   REMARKS
SAVANNAH ARPT  MOSUNNY   85  65  51 N5        29.84F
HUNTER AAF     PTSUNNY   79  68  68 E3        29.82F
FORT STEWART   PTSUNNY   79  66  64 N3        29.84S
STATESBORO     NOT AVBL
SYLVANIA       CLEAR     84  67  56 CALM      29.86S
CLAXTON        FAIR      81  66  61 CALM      29.85S
THOMSON        SUNNY     82  70  67 CALM      29.91F
AUGUSTA-BUSH   SUNNY     83  61  47 N3        29.84F
AUGUSTA-DANIEL MOSUNNY   83  62  49 NW7       29.87S
SWAINSBORO     CLOUDY    81  68  65 CALM      29.87F
VIDALIA        CLOUDY    79  68  69 N5        29.86F
ALMA           CLOUDY    77  68  73 N3        29.85F
WAYCROSS       CLOUDY    81  72  74 N6        29.85S
JESUP          FAIR      82  70  65 CALM      29.85S
BRUNSWICK      MOSUNNY   79  66  65 N6        29.85F
SAINT SIMONS   MOSUNNY   79  66  64 NE8       29.84F

$$

SCZ027-028-034-036>038-045-046-048>050-GAZ119-141-302200-
...LAKE AND SUPPLEMENTAL COASTAL OBSERVATIONS...

STATION/POSITION TIME  TEMP    WIND        PRES    WAVE   SWELL
                       AIR SEA DIR/SP/G            HT/PER HT/PER/DIR
                 (UTC) (F)     (DEG/KT/KT) (MB)    (FT/S) (FT/S/D)
UPR LAKE MARION  NOT AVBL
WINYAH BAY       2000   76      80/  7     1010.0S
LAKE MURRAY      2000   80     190/  6/  7 1010.5F
ACE BASIN NERRS  2000   83      30/  2     1011.0S
FORT PULASKI     2100   77      90/  6/  7 1010.8F
SAPELO ISLAND    NOT AVBL

$$

ANZ835-935-AMZ111-154-330-350-352-354-374-450-454-472-302200-
...C-MAN AND BUOY OBSERVATIONS...

STATION/POSITION TIME  TEMP    WIND        PRES    WAVE   SWELL
                       AIR SEA DIR/SP/G            HT/PER HT/PER/DIR
                 (UTC) (F)     (DEG/KT/KT) (MB)    (FT/S) (FT/S/D)
FOLLY BEACH CMAN 2000   76      90/  5/  6 1011.0F
BUOY 41004       2100   76 81   20/ 16/ 19 1009.4F   4/ 5   2/ 8
BUOY 41008       2100   75 79   20/ 10/ 14 1010.4F   4/ 6   3/ 70/ 6
5E ST. MARYS GA  2000      79                N/A     4/ 6
FRYING PAN BUOY  NOT AVBL
BUOY 41025       2100   74     360/ 16/ 19 1009.3S   4/ 6   2/ 70/ 7
CAPE LOOKOUT NC  2000   74      40/ 13/ 14 1009.6F
BUOY 41002       2048   76 81  120/ 14/ 16 1007.1F   3/ 7   2/ 70/ 7
BUOY 41010       2100   81 84  320/ 14/ 16 1008.7F   4/ 5   2/ 90/ 9
BUOY 41012       NOT AVBL
ST AUGUSTINE FL  2100   77      10/ 17/ 19 1010.6R
CAPERS NEARSHORE 2000   77      80/  8/ 12   N/A
FRIPP NEARSHORE  NOT AVBL


$$



USA.gov is the U.S. government's official web portal to all federal, state and local government web resources and services.